Hourly Data Report for March 17, 2015

All times are specified in Local Standard Time (LST). Add 1 hour to adjust for Daylight Saving Time where and when it is observed.

MIRAMICHI RCS
NEW BRUNSWICK

47°00'34.000" N
65°27'54.000" W
33.00 m
8100989
71744
ACQ

Download Data

Hourly Data (March 2015)
Hourly Data Report for March 17, 2015
TIME Temp Definition
°C
Dew Point Definition
°C
Rel Hum Definition
%
Wind Dir Definition
10's deg

Wind Spd Definition
km/h
Visibility Definition
km
Stn Press Definition
kPa
Hmdx Definition


Wind Chill Definition


Weather Definition


00:00 -15.1 -17.5 82 27 7   100.30   -20 LegendNANA
01:00 -16.9 -18.5 87 25 6   100.23   -21 LegendNANA
02:00 -14.7 -17.2 82 27 7   100.18   -19 LegendNANA
03:00 -15.1 -17.2 84 27 5   100.11   -19 LegendNANA
04:00 -15.7 -17.6 86 27 8   100.08   -21 LegendNANA
05:00 -19.6 -23.3 73 0 1   100.04   -20 LegendNANA
06:00 -18.1 -20.1 85 26 7   100.02   -23 LegendNANA
07:00 -19.2 -21.6 81 0 1   99.96   -20 LegendNANA
08:00 -15.0 -17.5 81 26 11   100.00   -22 LegendNANA
09:00 -10.7 -14.3 75 27 5   99.90   -14 LegendNANA
10:00 -8.1 -13.4 65 26 6   99.86   -11 LegendNANA
11:00 -5.6 -13.7 53 25 9   99.76   -10 LegendNANA
12:00 -2.4 -14.1 40 26 1   99.68   -3 LegendNANA
13:00 -2.2 -11.8 48 17 8   99.56   -5 LegendNANA
14:00 -0.3 -12.5 39 16 8   99.41   -3 LegendNANA
15:00 0.1 -12.4 38 15 8   99.31     LegendNANA
16:00 -0.8 -10.4 48 8 14   99.24   -5 LegendNANA
17:00 -1.0 -8.6 56 7 13   99.19   -5 LegendNANA
18:00 -2.4 -8.0 65 8 15   99.18   -7 LegendNANA
19:00 -3.2 -6.7 77 10 15   99.19   -8 LegendNANA
20:00 -4.1 -5.4 90 9 14   99.18   -9 LegendNANA
21:00 -4.5 -5.6 92 9 17   99.15   -10 LegendNANA
22:00 -4.8 -5.8 92 7 14   99.09   -10 LegendNANA
23:00 -5.0 -6.1 92 5 12   99.04   -10 LegendNANA

Notes on Data Quality.

Legend

  • E = Estimated
  • M = Missing
  • NA = Not Available
Date modified: